Location: Barcelona
(41.3830°N, 2.1830°E)
Time: 22:53:20
(UTC+02:00)

ISS - Pass Details

Date: 23 July 2017
Orbit: 400 x 408 km, 51.6° (Epoch: 24 July)

Event Time Altitude Azimuth Distance (km) Brightness Sun altitude
Rises 23:18:59 0° 244° (WSW) 2,301 0.2 -18.5°
Reaches altitude 10° 23:21:04 10° 248° (WSW) 1,445 -0.8 -18.8°
Maximum altitude 23:24:15 55° 328° (NNW) 485 -3.2 -19.2°
Drops below altitude 10° 23:27:28 10° 48° (NE) 1,452 -1.0 -19.5°
Sets 23:29:34 0° 53° (NE) 2,314 0.0 -19.8°
